sat.trackr.live / text

‹ back to catalog

STARLINK-6355

NORAD 57356 · 2023-099AE

PAYLOAD ACTIVE UNKNOWN

§ Identity

Operator
Country
US
Launch date
2023-07-16
Launch site
AFETR
Launch vehicle
Mass (kg)
RCS (m²)

Purposes: comms

External: N2YO · Heavens-Above · Gunter

§ Orbital elements

Epoch: 2026-09-20T06:15:16.169184Z

Period
94.27 min
Inclination
43.0017°
Eccentricity
0.0000588
Mean motion
15.27574657 rev/d
Perigee alt
482.7 km
Apogee alt
483.5 km
Semi-major
6,861.2 km
B*
3.9108e-6
RAAN
223.0808°
Arg perigee
255.5112°
Mean anomaly
104.5674°
Rev number
17,595

§ Raw data

STARLINK-63551 57356U 23099AE  26263.26060381 -.00000154  00000+0  39108-5 0  99902 57356  43.0017 223.0808 0000588 255.5112 104.5674 15.27574657175951

JSON: /api/v1/satellites/57356 · /tle

For live sub-satellite position, see the globe view (requires WebGL).

§ Visibility from observer

Set your observer location to see the next 7 days of passes ≥ 10°. The values pass through the URL so the page stays shareable.

No JS? Fill the form by hand. The geolocation button needs JavaScript.